Flag for Russia Weather past 2 weeks in Novorossiysk, Russia

Now
70 °F

Thunderstorms. Mostly cloudy.


Feels Like: 70 °F
Forecast: 66 / 95 °F
Wind: 8 mph from Southeast

Location: Anapa / Vitiazevo

Current Time: Aug 4, 2015 at 5:14:28 AM

Latest Report: Aug 4, 2015 at 4:00 AM


Visibility: N/A

Pressure: 29.89 "Hg

Humidity: 88%

Dew point: 66 °F

Location of NovorossiyskLocation

Historic Weather in Novorossiysk — Graph

°F

Novorossiysk temperature yesterday

Maximum temperature yesterday: 93 °F (at 3:00 PM)
Minimum temperature yesterday: 70 °F (at 5:00 AM)
Average temperature yesterday: 83 °F

Past Weeks' High & Low Weather Summary

 TemperatureHumidityPressure
High95 °F (Jul 31, 2:30 PM)100% (Jul 21, 12:00 AM)30.04 "Hg (Jul 21, 12:00 AM)
Low57 °F (Jul 22, 10:30 PM)32% (Jul 24, 4:00 PM)29.65 "Hg (Jul 26, 2:00 AM)
Average78 °F67%29.85 "Hg
* Reported Jul 20 4:00 AM — Aug 4 4:00 AM, Novorossiysk, Weather by CustomWeather, © 2015

Note: Actual official high and low records may vary slightly from our data, if they occured in-between our weather recording intervals... More about our weather records

Advertising

Novorossiysk weather history for previous 24 hours

 ConditionsComfort  
Time TempWeatherWind HumidityBarometerVisibility
4:00 AM
Tue, Aug 4
70 °FThunderstorms. Mostly cloudy.8 mph88%29.89 "HgN/A
3:00 AM75 °FThunderstorms. Partly cloudy.10 mph57%29.86 "HgN/A
2:00 AM79 °FClear.10 mph42%29.86 "Hg10 mi
1:00 AM82 °FClear.17 mph37%29.86 "Hg10 mi
12:00 AM81 °FClear.17 mph42%29.89 "Hg10 mi
11:30 PM
Mon, Aug 3
82 °FClear.15 mph40%29.89 "Hg10 mi
11:00 PM82 °FClear.15 mph40%29.89 "Hg10 mi
10:30 PM82 °FClear.17 mph42%29.89 "Hg10 mi
10:00 PM82 °FClear.13 mph45%29.89 "Hg10 mi
9:30 PM82 °FClear.13 mph48%29.89 "Hg10 mi
9:00 PM84 °FClear.10 mph45%29.92 "Hg10 mi
8:30 PM82 °FSunny.8 mph51%29.92 "Hg10 mi
8:00 PM81 °FSunny.8 mph58%29.92 "Hg10 mi
7:30 PM86 °FSunny.8 mph52%29.92 "Hg10 mi
7:00 PM88 °FSunny.6 mph49%29.92 "Hg10 mi
6:30 PM91 °FSunny.8 mph38%29.92 "Hg10 mi
6:00 PM93 °FSunny.10 mph32%29.92 "Hg10 mi
5:30 PM93 °FSunny.15 mph32%29.92 "Hg10 mi
5:00 PM93 °FSunny.17 mph32%29.92 "Hg10 mi
4:30 PM93 °FSunny.17 mph32%29.92 "Hg10 mi
4:00 PM93 °FPassing clouds.15 mph32%29.92 "HgN/A
3:30 PM93 °FSunny.15 mph32%29.95 "Hg10 mi
3:00 PM93 °FSunny.10 mph32%29.95 "Hg10 mi
2:30 PM91 °FPassing clouds.13 mph34%29.95 "HgN/A
2:00 PM91 °FPassing clouds.13 mph34%29.98 "HgN/A
1:30 PM91 °FPassing clouds.15 mph34%29.98 "HgN/A
1:00 PM90 °FPassing clouds.13 mph38%29.95 "HgN/A
12:30 PM90 °FSunny.15 mph38%29.98 "Hg10 mi
12:00 PM88 °FSunny.15 mph40%29.98 "Hg10 mi
11:30 AM88 °FPassing clouds.13 mph43%29.98 "HgN/A
11:00 AM86 °FPassing clouds.13 mph43%29.98 "HgN/A
10:30 AM84 °FPassing clouds.13 mph43%29.98 "HgN/A
10:00 AM82 °FSunny.15 mph42%29.98 "Hg10 mi
9:30 AM81 °FSunny.17 mph45%29.98 "Hg10 mi
9:00 AM79 °FSunny.15 mph45%29.98 "Hg10 mi
8:30 AM77 °FPassing clouds.10 mph44%29.98 "HgN/A
8:00 AM75 °FPassing clouds.8 mph47%29.98 "HgN/A
6:30 AM72 °FSunny.3 mph53%29.98 "Hg10 mi
6:00 AM72 °FClear.13 mph47%29.98 "Hg10 mi
5:30 AM72 °FClear.13 mph47%29.98 "Hg10 mi
5:00 AM70 °FClear.13 mph53%29.98 "Hg10 mi
Weather by CustomWeather, © 2015

See weather overviewHow to use our weather pages